Weather in Shaartuz

Tajikistan     37°15′49″N   68°08′09″E
temp.,
°C
wind,
m/s
gust,
m/s
humid.,
%
clouds,
%
prec.,
mm/h
press.,
hPa
HPBL,
m
22 october, fri
fri2223:00+14wsw61361100 0.0 1025902
02:00+13wsw71256100 0.0 1025983
05:00+11wsw101654100 0.0 10261072
08:00+11wsw9154252 0.0 10291056
11:00+13w912302 0.0 10311045
14:00+15w772114 0.0 10301423
17:00+14w2215100 0.0 10311035
20:00+12nw1119100 0.0 103214
23 october, sat
sat2323:00+10ne22212 0.0 103111
02:00+8ene11234 0.0 103010
05:00+8ene22280 0.0 102910
08:00+9ene12290 0.0 102969
11:00+14ene23280 0.0 1027716
14:00+17ene23240 0.0 10241198
17:00+16ne11250 0.0 102316
20:00+12wnw11320 0.0 102311
24 october, sun
sun2423:00+12n22310 0.0 102210
02:00+10ene21300 0.0 102110
05:00+9ene22300 0.0 102110
08:00+11ene22270 0.0 102147
11:00+17ene23210 0.0 1018553
14:00+21ene34160 0.0 1014958
17:00+19ne11170 0.0 101311
20:00+14wnw11210 0.0 101411
25 october, mon
mon2523:00+13nnw11230 0.0 101411
02:00+12ene11230 0.0 101411
05:00+10e11250 0.0 101510
08:00+13ene11240 0.0 101611
11:00+19ene11152 0.0 1016459
14:00+22n011244 0.0 1014882
17:00+20s111642 0.0 101411
20:00+16w1119100 0.0 101511
26 october, tue
tue2623:00+16wnw1119100 0.0 101511
02:00+14nw112169 0.0 101511
05:00+12sse112352 0.0 101511
08:00+15ese112218 0.0 101711
11:00+20e11140 0.0 1017533
14:00+23ene11120 0.0 10151003
17:00+21se01160 0.0 101511
20:00+17nne11190 0.0 101711